CW8593 Weather Reports


Display with metric or nautical units.
time (UTC)temp
F
wind
direction
speed
MPH
gust
MPH
rain 1hr
in
rain 24hr
in
rain mn
in
humidity
%
barometer
mb
20170725063123 69 322 5.0 10.0 0.00 0.38 0.38 68 1014.0
20170725062223 69 327 6.0 11.0 0.00 0.38 0.38 68 1013.9
20170725061323 69 318 5.0 12.0 0.00 0.38 0.38 69 1013.9
20170725060423 69 328 5.0 11.0 0.00 0.38 0.38 69 1014.0
20170725055523 69 329 5.0 11.0 0.00 0.38 0.38 69 1013.9
20170725054623 69 328 6.0 9.0 0.00 0.38 0.38 69 1014.0
20170725053723 69 329 6.0 10.0 0.00 0.38 0.38 69 1014.1
20170725052823 68 336 5.0 11.0 0.00 0.38 0.38 69 1014.1
20170725051923 68 331 5.0 10.0 0.00 0.38 0.38 69 1014.1
20170725051023 68 331 5.0 9.0 0.00 0.38 0.38 70 1014.1
20170725050123 68 338 4.0 11.0 0.00 0.38 0.38 69 1014.1
20170725045223 68 306 4.0 9.0 0.00 0.38 0.38 69 1014.0
20170725044323 68 316 5.0 9.0 0.00 0.38 0.38 69 1013.9
20170725043423 68 323 6.0 9.0 0.00 0.38 0.38 69 1013.9
20170725042523 68 313 6.0 12.0 0.00 0.38 0.38 69 1013.9
20170725041623 69 317 6.0 12.0 0.00 0.38 0.38 69 1014.0
20170725040723 69 311 8.0 14.0 0.00 0.38 0.38 69 1014.0
20170725035823 69 308 7.0 13.0 0.00 0.38 0.38 67 1013.8
20170725034923 69 306 6.0 11.0 0.00 0.38 0.38 64 1013.9
20170725034023 69 311 4.0 9.0 0.00 0.38 0.38 62 1014.0
20170725033123 70 315 4.0 7.0 0.01 0.38 0.38 61 1013.9
20170725032223 70 306 6.0 10.0 0.02 0.38 0.38 61 1014.0
20170725031323 71 299 5.0 10.0 0.03 0.38 0.38 60 1013.9
20170725030423 71 309 3.0 8.0 0.03 0.38 0.38 60 1013.9
20170725025523 71 325 3.0 6.0 0.05 0.38 0.38 60 1013.9
20170725024623 71 328 3.0 5.0 0.05 0.38 0.38 60 1013.9
20170725023723 71 6 1.0 5.0 0.04 0.37 0.38 60 1014.0
20170725022823 72 15 1.0 3.0 0.05 0.37 0.37 61 1014.0
20170725021923 72 15 1.0 3.0 0.04 0.36 0.36 61 1014.1
20170725021023 72 6 3.0 5.0 0.04 0.35 0.35 61 1014.1
20170725020123 72 2 5.0 10.0 0.06 0.34 0.34 60 1014.1
20170725015223 72 349 3.0 10.0 0.09 0.33 0.33 59 1014.2
20170725014323 73 317 2.0 5.0 0.20 0.33 0.33 59 1014.3
20170725013423 73 304 2.0 5.0 0.23 0.33 0.33 59 1014.3
20170725012523 73 305 3.0 6.0 0.26 0.32 0.32 60 1014.3
20170725011623 73 302 6.0 10.0 0.30 0.32 0.32 60 1014.3
20170725010723 73 321 5.0 15.0 0.29 0.30 0.30 60 1014.3
20170725005823 74 337 3.0 10.0 0.28 0.28 0.28 61 1014.3
20170725004923 74 327 2.0 6.0 0.21 0.21 0.22 62 1014.4
20170725004023 75 99 2.0 7.0 0.11 0.11 0.11 63 1014.6
20170725003123 75 112 2.0 7.0 0.09 0.09 0.09 64 1014.5
20170725002223 75 114 6.0 13.0 0.05 0.05 0.05 64 1014.6
20170725001323 76 111 9.0 16.0 0.01 0.01 0.02 65 1014.6
20170725000423 76 101 8.0 16.0 0.00 0.00 0.00 66 1014.6
20170724235522 76 90 6.0 15.0 0.00 0.00 0.00 66 1014.5
20170724234622 76 102 8.0 13.0 0.00 0.00 0.00 65 1014.7
20170724232823 77 90 4.0 15.0 0.00 0.00 0.00 66 1014.8
20170724231923 77 90 5.0 11.0 0.00 0.00 0.00 66 1014.9
20170724231023 77 75 6.0 11.0 0.00 0.00 0.00 66 1015.1
20170724230122 77 84 5.0 10.0 0.00 0.00 0.00 67 1015.1
20170724225222 77 79 4.0 14.0 0.00 0.00 0.00 67 1015.0
20170724224322 77 81 5.0 9.0 0.00 0.00 0.00 66 1015.0
20170724223422 77 77 6.0 10.0 0.00 0.00 0.00 66 1014.9
20170724222522 77 66 6.0 11.0 0.00 0.00 0.00 66 1014.9
20170724221623 77 53 5.0 11.0 0.00 0.00 0.00 66 1015.0
20170724220722 77 59 6.0 10.0 0.00 0.00 0.00 66 1015.0
20170724215822 76 63 6.0 13.0 0.00 0.00 0.00 67 1014.8
20170724214922 77 55 5.0 13.0 0.00 0.00 0.00 67 1014.8
20170724214022 77 64 5.0 11.0 0.00 0.00 0.00 67 1014.8
20170724213122 77 59 7.0 13.0 0.00 0.00 0.00 67 1014.7
20170724212222 77 60 6.0 13.0 0.00 0.00 0.00 67 1014.7
20170724211322 77 71 5.0 11.0 0.00 0.00 0.00 67 1014.7
20170724210422 77 57 7.0 11.0 0.00 0.00 0.00 67 1014.7
20170724205522 77 61 7.0 12.0 0.00 0.00 0.00 67 1014.6
20170724204622 77 60 5.0 12.0 0.00 0.00 0.00 67 1014.4
20170724203722 77 84 5.0 10.0 0.00 0.00 0.00 67 1014.3
20170724202822 77 61 5.0 11.0 0.00 0.00 0.00 67 1014.1
20170724201922 77 72 6.0 11.0 0.00 0.00 0.00 67 1014.0
20170724201022 77 60 6.0 11.0 0.00 0.00 0.00 67 1014.0
20170724200122 77 59 7.0 12.0 0.00 0.00 0.00 68 1013.8
20170724195222 78 66 8.0 16.0 0.00 0.00 0.00 68 1013.7
20170724194322 78 68 7.0 16.0 0.00 0.00 0.00 69 1013.6
20170724193422 78 61 8.0 13.0 0.00 0.00 0.00 69 1013.6
20170724192522 78 68 7.0 14.0 0.00 0.00 0.00 70 1013.5
20170724191622 78 81 6.0 16.0 0.00 0.00 0.00 70 1013.4
20170724190723 78 79 6.0 13.0 0.00 0.00 0.00 69 1013.3
20170724185822 78 63 7.0 13.0 0.00 0.00 0.00 69 1013.3
20170724184922 78 58 7.0 13.0 0.00 0.00 0.00 70 1013.1
20170724184022 79 71 6.0 11.0 0.00 0.00 0.00 69 1013.1
20170724183122 79 58 7.0 13.0 0.00 0.00 0.00 69 1012.8
20170724182222 79 76 8.0 13.0 0.00 0.00 0.00 69 1012.8
20170724181322 79 58 8.0 14.0 0.00 0.00 0.00 69 1012.7
20170724180423 79 74 7.0 14.0 0.00 0.00 0.00 69 1012.7
20170724175522 79 57 8.0 15.0 0.00 0.00 0.00 69 1012.8
20170724174622 79 64 9.0 17.0 0.00 0.00 0.00 69 1012.7
20170724173722 79 65 10.0 17.0 0.00 0.01 0.00 68 1012.7
20170724172822 79 75 9.0 17.0 0.00 0.02 0.00 68 1012.5
20170724171922 80 98 9.0 18.0 0.00 0.02 0.00 69 1012.4
20170724171022 80 72 8.0 16.0 0.00 0.04 0.00 67 1012.4
20170724170122 80 85 9.0 13.0 0.00 0.05 0.00 66 1012.3
20170724165222 80 97 10.0 18.0 0.00 0.20 0.00 67 1012.2
20170724164322 80 87 10.0 18.0 0.00 0.23 0.00 67 1012.2
20170724163422 80 82 10.0 22.0 0.00 0.23 0.00 68 1012.2
20170724162522 80 84 10.0 18.0 0.00 0.23 0.00 67 1012.1
20170724161622 81 89 11.0 20.0 0.00 0.23 0.00 67 1012.1
20170724160722 81 91 9.0 17.0 0.00 0.23 0.00 66 1012.1
20170724155822 82 88 10.0 18.0 0.00 0.23 0.00 66 1012.1
20170724154922 82 96 9.0 19.0 0.00 0.23 0.00 66 1012.1
20170724154022 82 106 9.0 18.0 0.00 0.23 0.00 66 1011.9
20170724153122 82 101 8.0 18.0 0.00 0.23 0.00 66 1012.0
20170724152222 82 100 10.0 18.0 0.00 0.23 0.00 66 1012.0
20170724151322 82 105 11.0 17.0 0.00 0.23 0.00 67 1012.1
20170724150422 82 110 10.0 18.0 0.00 0.23 0.00 66 1012.0
20170724145522 83 110 6.0 16.0 0.00 0.23 0.00 65 1012.1
20170724144622 82 136 9.0 14.0 0.00 0.23 0.00 64 1012.2
20170724143722 82 114 9.0 15.0 0.00 0.23 0.00 64 1012.2
20170724142822 82 124 8.0 16.0 0.00 0.23 0.00 64 1012.4
20170724141922 82 121 8.0 13.0 0.00 0.23 0.00 64 1012.3
20170724141022 82 132 8.0 14.0 0.00 0.24 0.00 64 1012.5
20170724140122 82 110 8.0 16.0 0.00 0.24 0.00 64 1012.6
20170724135222 82 122 6.0 13.0 0.00 0.24 0.00 64 1012.6
20170724134322 82 137 6.0 13.0 0.00 0.24 0.00 63 1012.7
20170724133422 82 129 8.0 15.0 0.00 0.24 0.00 63 1012.7
20170724132521 82 123 8.0 15.0 0.00 0.24 0.00 63 1012.7
20170724131622 81 136 8.0 17.0 0.00 0.24 0.00 63 1012.7
20170724125822 81 138 7.0 13.0 0.00 0.24 0.00 62 1013.0
20170724124921 81 139 6.0 12.0 0.00 0.24 0.00 62 1013.0
20170724124021 81 158 6.0 14.0 0.00 0.24 0.00 62 1013.1
20170724123121 81 169 5.0 13.0 0.00 0.24 0.00 62 1013.2
20170724122221 81 151 6.0 12.0 0.00 0.24 0.00 63 1013.1
20170724121321 80 143 7.0 17.0 0.00 0.24 0.00 63 1013.2
20170724120421 81 138 6.0 14.0 0.00 0.24 0.00 64 1013.3
20170724115521 80 147 6.0 10.0 0.00 0.24 0.00 64 1013.4
20170724114621 80 155 4.0 11.0 0.00 0.24 0.00 64 1013.4
20170724113721 81 178 5.0 8.0 0.00 0.24 0.00 63 1013.5
20170724112821 80 162 6.0 12.0 0.00 0.24 0.00 64 1013.6
20170724111921 80 161 5.0 10.0 0.00 0.24 0.00 66 1013.8
20170724110121 79 145 6.0 12.0 0.00 0.24 0.00 68 1014.0
20170724105221 79 157 5.0 12.0 0.00 0.24 0.00 69 1014.0
20170724104321 79 144 6.0 12.0 0.00 0.24 0.00 69 1013.9
20170724103421 79 139 6.0 11.0 0.00 0.24 0.00 68 1014.0
20170724102521 79 157 6.0 11.0 0.00 0.24 0.00 66 1014.1
20170724101621 78 160 6.0 11.0 0.00 0.24 0.00 66 1014.1
20170724100721 79 146 5.0 13.0 0.00 0.24 0.00 67 1014.2
20170724095821 79 179 4.0 11.0 0.00 0.24 0.00 66 1014.2
20170724094921 79 184 5.0 9.0 0.00 0.24 0.00 66 1014.2
20170724094021 79 158 5.0 13.0 0.00 0.24 0.00 65 1014.2
20170724093121 79 155 5.0 10.0 0.00 0.24 0.00 64 1014.1
20170724092221 79 132 5.0 10.0 0.00 0.24 0.00 64 1014.1
20170724091321 79 132 4.0 11.0 0.00 0.24 0.00 64 1014.2
20170724090421 79 140 4.0 8.0 0.00 0.24 0.00 62 1014.1
20170724085521 79 131 3.0 9.0 0.00 0.24 0.00 60 1014.1
20170724084621 79 125 2.0 7.0 0.00 0.24 0.00 61 1014.1
20170724083721 78 131 2.0 7.0 0.00 0.24 0.00 62 1014.1
20170724082821 78 117 2.0 7.0 0.00 0.24 0.00 60 1014.1
20170724081921 79 70 2.0 7.0 0.00 0.24 0.00 60 1014.2
20170724081021 78 52 1.0 5.0 0.00 0.24 0.00 62 1014.2
20170724080121 77 22 2.0 4.0 0.00 0.24 0.00 63 1014.3
20170724075221 77 17 3.0 6.0 0.00 0.24 0.00 63 1014.3
20170724074321 76 3 3.0 9.0 0.00 0.24 0.00 65 1014.3
20170724073421 76 39 2.0 6.0 0.00 0.24 0.00 64 1014.3
20170724072521 77 40 1.0 4.0 0.00 0.24 0.00 64 1014.2
20170724071621 77 40 1.0 5.0 0.00 0.24 0.00 66 1014.2
20170724070721 76 34 1.0 4.0 0.00 0.24 0.00 67 1014.2
20170724065821 76 4 1.0 6.0 0.00 0.24 0.00 66 1014.2
20170724064921 76 348 1.0 3.0 0.00 0.24 0.00 68 1014.2
20170724064021 75 348 1.0 5.0 0.00 0.24 0.00 69 1014.2